Greenville, AL

2:18 AM CDT on March 24, 2017 (GMT -0500)
Greenville Municipal

Weather History for KPRN - December, 2013

Change the Weather History Date:

Monday, December 30, 2013

  Actual Average Record
Temperature  
Mean Temperature 44 °F -  
Max Temperature 54 °F 58 °F 82 °F (1984)
Min Temperature 34 °F 38 °F 13 °F (1983)
Degree Days  
Heating Degree Days 21    
Moisture  
Dew Point 42 °F    
Average Humidity 88    
Maximum Humidity 93    
Minimum Humidity 75    
Precipitation  
Precipitation 0.00 in - - ()
Sea Level Pressure  
Sea Level Pressure 30.18 in    
Wind  
Wind Speed 1 mph (NW)    
Max Wind Speed 9 mph    
Max Gust Speed -    
Visibility 10 miles    
Events      
Averages and records for this station are not official NWS values.
T = Trace of Precipitation, MM = Missing Value Source: NWS Daily Summary

Daily Weather History Graph

Daily Weather History Graph

Search for Another Location

Airport or City:

Trip Planner

Search our weather history database for the weather conditions in past years. The results will help you decide how hot, cold, wet, or windy it might be!

Date:

Astronomy

Dec. 30, 2013 Rise Set
Actual Time 6:46 AM CST 4:52 PM CST
Civil Twilight 6:19 AM CST 5:19 PM CST
Nautical Twilight 5:48 AM CST 5:49 PM CST
Astronomical Twilight 5:19 AM CST 6:19 PM CST
Moon 4:38 AM CST (12/30) 3:22 PM CST (12/30)
Length of Visible Light 10h 59m
Length of Day
10h 06m
Waning Crescent, 4% of the Moon is Illuminated
Dec 30
Waning Crescent
Jan 1
New
Jan 7
First Quarter
Jan 15
Full
Jan 23
Last Quarter

Hourly Weather History & Observations

Time (CST) Temp. Dew Point Humidity Pressure Visibility Wind Dir Wind Speed Gust Speed Precip Events Conditions
12:56 AM 36.0 °F 33.1 °F 89% 30.09 in 10.0 mi Calm Calm - N/A   Clear
1:56 AM 35.1 °F 33.1 °F 92% 30.11 in 10.0 mi Calm Calm - N/A   Clear
2:56 AM 34.0 °F 32.0 °F 92% 30.12 in 10.0 mi Calm Calm - N/A   Clear
3:56 AM 35.1 °F 33.1 °F 92% 30.12 in 10.0 mi Calm Calm - N/A   Clear
4:56 AM 35.1 °F 33.1 °F 92% 30.12 in 10.0 mi Calm Calm - N/A   Clear
5:56 AM 36.0 °F 34.0 °F 93% 30.13 in 10.0 mi Calm Calm - N/A   Clear
6:56 AM 37.0 °F 35.1 °F 93% 30.15 in 10.0 mi Calm Calm - N/A   Clear
7:56 AM 41.0 °F 37.9 °F 89% 30.16 in 10.0 mi Calm Calm - N/A   Clear
8:56 AM 44.1 °F 42.1 °F 93% 30.19 in 10.0 mi Calm Calm - N/A   Clear
9:56 AM 48.0 °F 45.0 °F 89% 30.20 in 10.0 mi Calm Calm - N/A   Clear
10:56 AM 51.1 °F 46.0 °F 83% 30.20 in 10.0 mi Calm Calm - N/A   Clear
11:56 AM 51.8 °F 46.4 °F 82% 30.18 in 10.0 mi Calm Calm - N/A   Clear
12:56 PM 53.1 °F 46.0 °F 77% 30.16 in 10.0 mi Calm Calm - N/A   Clear
1:56 PM 53.1 °F 46.9 °F 80% 30.16 in 10.0 mi Calm Calm - N/A   Clear
2:56 PM 54.0 °F 46.0 °F 75% 30.16 in 10.0 mi SSW 4.6 mph - N/A   Clear
3:56 PM 53.1 °F 46.0 °F 77% 30.16 in 10.0 mi Calm Calm - N/A   Partly Cloudy
4:56 PM 51.1 °F 46.0 °F 83% 30.17 in 10.0 mi Calm Calm - N/A   Clear
5:56 PM 50.0 °F 46.9 °F 89% 30.19 in 10.0 mi Calm Calm - N/A   Clear
6:56 PM 50.0 °F 46.9 °F 89% 30.21 in 9.0 mi Calm Calm - N/A   Clear
7:56 PM 48.0 °F 46.0 °F 93% 30.22 in 9.0 mi Calm Calm - N/A   Clear
8:56 PM - - N/A% - 0.7 mi North - - N/A   Unknown
9:56 PM 48.0 °F 46.0 °F 93% 30.25 in 10.0 mi WNW 3.5 mph - N/A   Clear
10:20 PM 48.2 °F 46.4 °F 93% 30.25 in 10.0 mi NW 3.5 mph - N/A   Scattered Clouds
10:29 PM 48.2 °F 46.4 °F 93% 30.25 in 10.0 mi NNW 5.8 mph - N/A   Mostly Cloudy
10:51 PM 48.2 °F 44.6 °F 87% 30.26 in 10.0 mi NW 9.2 mph - N/A   Overcast
10:56 PM 48.0 °F 45.0 °F 89% 30.26 in 10.0 mi NNW 5.8 mph - N/A   Mostly Cloudy
11:56 PM 46.9 °F 44.1 °F 90% 30.25 in 10.0 mi NNW 8.1 mph - N/A   Partly Cloudy